Location: East Horndon
(51.5667°N, 0.3500°E)
Time: 01:17:01
(UTC+00:00)

Cosmos 2322 Rocket - Pass Details

Date: 08 November 2025
Orbit: 830 x 851 km, 71.0° (Epoch: 13 December)

Event Time Altitude Azimuth Distance (km) Brightness Sun altitude
Exits shadow 05:41:29 16° 302° (WNW) 2,074 3.7 -13.1°
Maximum altitude 05:43:33 19° 328° (NNW) 1,910 3.7 -12.8°
Drops below altitude 10° 05:47:34 10° 13° (NNE) 2,486 4.7 -12.2°
Sets 05:50:47 0° 31° (NNE) 3,427 5.6 -11.7°
